• In Latvia
  • List of Countries
  • For 7 days
  • Water Temperature
  • Satellite Maps
  • Weather Map
  • Weather Widgets
  • user-avatar
    Login

    Hourly Weather Luanda

    Today, 26 March, Sunday

    Time Temperature Precipitation Wind Pressure Humidity
    00:00 +28°C° 0 mm 3 mps 753 mmHg 89%
    01:00 +28°C° 0 mm 3 mps 753 mmHg 90%
    02:00 +28°C° 0 mm 3 mps 753 mmHg 89%
    03:00 +28°C° 0 mm 2 mps 753 mmHg 88%
    04:00 +28°C° 0 mm 2 mps 753 mmHg 87%
    05:00 +28°C° 0 mm 2 mps 753 mmHg 87%
    06:00 +28°C° 0 mm 2 mps 754 mmHg 87%
    07:00 +28°C° 0 mm 2 mps 754 mmHg 86%
    08:00 +30°C° 0 mm 2 mps 754 mmHg 77%
    09:00 +32°C° 0 mm 1 mps 754 mmHg 69%
    10:00 +33°C° 0 mm 1 mps 754 mmHg 60%
    11:00 +36°C° 0 mm 2 mps 753 mmHg 55%
    12:00 +37°C° 0 mm 3 mps 753 mmHg 50%
    13:00 +39°C° 0 mm 3 mps 752 mmHg 45%
    14:00 +38°C° 0 mm 4 mps 751 mmHg 50%
    15:00 +37°C° 0 mm 5 mps 751 mmHg 54%
    16:00 +35°C° 0 mm 6 mps 750 mmHg 58%
    17:00 +34°C° 0 mm 5 mps 751 mmHg 65%
    18:00 +32°C° 0 mm 5 mps 751 mmHg 71%
    19:00 +29°C° 0 mm 5 mps 751 mmHg 77%
    20:00 +29°C° 0 mm 4 mps 752 mmHg 80%
    21:00 +29°C° 0 mm 4 mps 752 mmHg 82%
    22:00 +28°C° 0 mm 4 mps 753 mmHg 85%
    23:00 +28°C° 0 mm 3 mps 753 mmHg 86%

    Tomorrow, 27 March, Monday

    Time Temperature Precipitation Wind Pressure Humidity
    00:00 +28°C° 0 mm 3 mps 753 mmHg 87%
    01:00 +28°C° 0 mm 3 mps 753 mmHg 88%
    02:00 +28°C° 0 mm 2 mps 753 mmHg 88%
    03:00 +28°C° 0 mm 2 mps 752 mmHg 87%
    04:00 +28°C° 0 mm 2 mps 752 mmHg 87%
    05:00 +28°C° 0 mm 2 mps 752 mmHg 87%
    06:00 +28°C° 0 mm 2 mps 753 mmHg 87%
    07:00 +28°C° 0 mm 2 mps 753 mmHg 87%
    08:00 +30°C° 0 mm 1 mps 753 mmHg 78%
    09:00 +31°C° 0 mm 1 mps 754 mmHg 69%
    10:00 +33°C° 0 mm 1 mps 754 mmHg 61%
    11:00 +36°C° 0 mm 2 mps 753 mmHg 55%
    12:00 +37°C° 0 mm 2 mps 753 mmHg 48%
    13:00 +39°C° 0 mm 3 mps 752 mmHg 42%
    14:00 +38°C° 0 mm 3 mps 751 mmHg 46%
    15:00 +37°C° 0 mm 4 mps 751 mmHg 50%
    16:00 +36°C° 0 mm 5 mps 750 mmHg 54%
    17:00 +34°C° 0 mm 5 mps 750 mmHg 62%
    18:00 +32°C° 0 mm 5 mps 751 mmHg 70%
    19:00 +29°C° 0 mm 5 mps 751 mmHg 79%
    20:00 +29°C° 0 mm 4 mps 752 mmHg 80%
    21:00 +29°C° 0 mm 4 mps 752 mmHg 82%
    22:00 +28°C° 0 mm 3 mps 753 mmHg 84%
    23:00 +28°C° 0 mm 3 mps 753 mmHg 85%

    Day after tomorrow, 28 March, Tuesday

    Time Temperature Precipitation Wind Pressure Humidity
    00:00 +28°C° 0 mm 3 mps 753 mmHg 86%
    01:00 +28°C° 0 mm 3 mps 753 mmHg 86%
    02:00 +28°C° 0 mm 2 mps 752 mmHg 87%
    03:00 +27°C° 0 mm 2 mps 752 mmHg 88%
    04:00 +27°C° 0 mm 2 mps 752 mmHg 89%
    05:00 +27°C° 0 mm 2 mps 752 mmHg 89%
    06:00 +27°C° 0 mm 2 mps 753 mmHg 88%
    07:00 +28°C° 0 mm 2 mps 753 mmHg 87%
    08:00 +30°C° 0 mm 2 mps 753 mmHg 76%
    09:00 +32°C° 0 mm 2 mps 753 mmHg 64%
    10:00 +36°C° 0 mm 2 mps 753 mmHg 53%
    11:00 +38°C° 0 mm 2 mps 752 mmHg 47%
    12:00 +40°C° 0 mm 2 mps 752 mmHg 41%
    13:00 +43°C° 0 mm 3 mps 751 mmHg 36%
    14:00 +41°C° 0 mm 4 mps 750 mmHg 42%
    15:00 +39°C° 0 mm 5 mps 749 mmHg 48%
    16:00 +36°C° 0 mm 6 mps 749 mmHg 54%
    17:00 +34°C° 0 mm 5 mps 749 mmHg 62%
    18:00 +32°C° 0 mm 5 mps 750 mmHg 70%
    19:00 +29°C° 0 mm 5 mps 750 mmHg 78%
    20:00 +29°C° 0 mm 4 mps 751 mmHg 80%
    21:00 +29°C° 0 mm 3 mps 752 mmHg 83%
    22:00 +28°C° 0 mm 3 mps 753 mmHg 85%
    23:00 +28°C° 0 mm 3 mps 752 mmHg 86%

    29 March, Wednesday

    Time Temperature Precipitation Wind Pressure Humidity
    00:00 +28°C° 0 mm 3 mps 752 mmHg 87%
    01:00 +28°C° 0 mm 3 mps 752 mmHg 88%
    02:00 +27°C° 0 mm 3 mps 751 mmHg 88%
    03:00 +27°C° 0 mm 3 mps 751 mmHg 89%
    04:00 +27°C° 0 mm 3 mps 750 mmHg 90%
    05:00 +27°C° 0 mm 2 mps 751 mmHg 89%
    06:00 +28°C° 0 mm 2 mps 751 mmHg 88%
    07:00 +28°C° 0 mm 2 mps 752 mmHg 86%
    08:00 +30°C° 0 mm 2 mps 752 mmHg 76%
    09:00 +33°C° 0 mm 1 mps 753 mmHg 65%
    10:00 +35°C° 0 mm 1 mps 753 mmHg 55%
    11:00 +37°C° 0.3 mm 2 mps 752 mmHg 54%
    12:00 +37°C° 0.3 mm 3 mps 751 mmHg 52%
    13:00 +38°C° 0.3 mm 4 mps 750 mmHg 50%
    14:00 +37°C° 0.3 mm 4 mps 750 mmHg 54%
    15:00 +36°C° 0.3 mm 5 mps 749 mmHg 57%
    16:00 +35°C° 0.3 mm 5 mps 749 mmHg 61%
    17:00 +33°C° 0.5 mm 5 mps 749 mmHg 70%
    18:00 +30°C° 0.5 mm 4 mps 750 mmHg 79%
    19:00 +28°C° 0.5 mm 4 mps 751 mmHg 88%
    20:00 +28°C° 0.1 mm 3 mps 751 mmHg 90%
    21:00 +28°C° 0.1 mm 3 mps 752 mmHg 91%
    22:00 +28°C° 0.1 mm 2 mps 753 mmHg 92%
    23:00 +28°C° 1 mm 2 mps 752 mmHg 92%

    30 March, Thursday

    Time Temperature Precipitation Wind Pressure Humidity
    00:00 +28°C° 1 mm 2 mps 752 mmHg 93%
    01:00 +28°C° 1 mm 2 mps 752 mmHg 93%
    02:00 +28°C° 0.8 mm 2 mps 752 mmHg 94%
    03:00 +28°C° 0.8 mm 3 mps 751 mmHg 94%
    04:00 +27°C° 0.8 mm 3 mps 751 mmHg 95%
    05:00 +27°C° 1.2 mm 3 mps 752 mmHg 95%
    06:00 +27°C° 1.2 mm 3 mps 752 mmHg 95%
    07:00 +27°C° 1.2 mm 4 mps 753 mmHg 95%
    08:00 +28°C° 0.5 mm 3 mps 753 mmHg 91%
    09:00 +29°C° 0.5 mm 3 mps 753 mmHg 87%
    10:00 +29°C° 0.5 mm 3 mps 753 mmHg 83%
    11:00 +30°C° 0.1 mm 3 mps 753 mmHg 80%
    12:00 +31°C° 0.1 mm 3 mps 752 mmHg 76%
    13:00 +31°C° 0.1 mm 2 mps 751 mmHg 72%
    14:00 +31°C° 0 mm 2 mps 751 mmHg 68%
    15:00 +32°C° 0 mm 2 mps 750 mmHg 65%
    16:00 +32°C° 0 mm 2 mps 750 mmHg 61%
    17:00 +31°C° 0 mm 2 mps 750 mmHg 66%
    18:00 +30°C° 0 mm 3 mps 751 mmHg 71%
    19:00 +29°C° 0 mm 3 mps 752 mmHg 76%
    20:00 +29°C° 0 mm 3 mps 752 mmHg 78%
    21:00 +28°C° 0 mm 3 mps 752 mmHg 81%
    22:00 +28°C° 0 mm 3 mps 753 mmHg 83%
    23:00 +27°C° 0 mm 3 mps 753 mmHg 86%

    31 March, Friday

    Time Temperature Precipitation Wind Pressure Humidity
    00:00 +27°C° 0 mm 3 mps 752 mmHg 88%
    01:00 +27°C° 0 mm 3 mps 752 mmHg 90%
    02:00 +26°C° 0 mm 3 mps 752 mmHg 91%
    03:00 +26°C° 0 mm 2 mps 752 mmHg 92%
    04:00 +26°C° 0 mm 2 mps 752 mmHg 93%
    05:00 +26°C° 0.4 mm 2 mps 752 mmHg 91%
    06:00 +27°C° 0.4 mm 2 mps 753 mmHg 90%
    07:00 +27°C° 0.4 mm 2 mps 753 mmHg 88%
    08:00 +30°C° 0 mm 1 mps 753 mmHg 76%
    09:00 +33°C° 0 mm 1 mps 753 mmHg 64%
    10:00 +34°C° 0 mm 0 mps 753 mmHg 52%
    11:00 +36°C° 0.3 mm 1 mps 753 mmHg 51%
    12:00 +37°C° 0.3 mm 2 mps 752 mmHg 51%
    13:00 +37°C° 0.3 mm 3 mps 751 mmHg 50%
    14:00 +37°C° 0.2 mm 4 mps 751 mmHg 52%
    15:00 +36°C° 0.2 mm 4 mps 751 mmHg 54%
    16:00 +36°C° 0.2 mm 5 mps 750 mmHg 56%
    17:00 +34°C° 0 mm 4 mps 751 mmHg 64%
    18:00 +32°C° 0 mm 4 mps 751 mmHg 73%
    19:00 +29°C° 0 mm 4 mps 752 mmHg 81%
    20:00 +29°C° 0.1 mm 3 mps 753 mmHg 84%
    21:00 +28°C° 0.1 mm 3 mps 753 mmHg 87%
    22:00 +28°C° 0.1 mm 2 mps 753 mmHg 89%
    23:00 +28°C° 0.8 mm 2 mps 753 mmHg 90%
    Show more